星链-4201 (STARLINK-4201 )

导读 | 星芒AI

STARLINK-4201 是 SpaceX 星链计划中的一颗低轨通信卫星,属于第 42 批发射的星链卫星群。该卫星运行在约 550 公里的近地轨道,旨在为全球用户提供高速互联网服务。它采用先进的相控阵天线和激光通信技术,具备高带宽和低延迟特性。作为星链网络的一部分,STARLINK-4201 有助于扩大覆盖范围,提升网络稳定性和服务质量,特别是在偏远和网络基础设施薄弱的地区。

基本信息
目录编号:
52856
目录名称:
STARLINK-4201
国际标识:
2022-062AC
轨道中心:
EARTH
卫星名称:
星链-4201
卫星全名:
星链-4201 (STARLINK-4201 )
卫星状态:
在轨 (已飞行1283 天)
发射日期:
2022-06-17 UTC
国别 :
美国 (US)
星等 :
--
轨道信息
数据来源 国际轨道数据 AOE轨道数据
星历时间 2025-12-21T03:19:00+0800
11小时前
查看轨道信息
2025-12-17T08:00:00+0800
4天前
查看轨道信息
半长轴 6917.885km 6917.849km
偏心率 0.0001359 0.00017
轨道倾角 53.218° 53.217°
近地点辐角 89.419° 66.833°
升交点赤经 18.298° 35.380°
平近点角 270.696° 134.736°
近地点 538.807km 538.537km
远地点 540.689km 540.891km
周期 95.438分钟 95.437分钟
每日圈数 15.088386 15.088503
详细信息
固有亮度:
5
最大亮度:
2.5
卫星平台:
Starlink v1.5
覆盖范围:
全球
运营商:
太空探索技术公司
运营商所在国:
美国
制造商(研发单位):
太空探索技术公司
制造商所在国:
美国
使用方式:
暂无
卫星简介
星链(Starlink)计划是由太空探索技术公司(SpaceX)提出的一个巨型低轨卫星互联网星座项目,计划在2019年至2024年间在太空搭建由约1.2万颗卫星组成的“星链”网络,其中1584颗将部署在地球上空550千米处的近地轨道,并从2020年开始工作。该卫星仍在工作。
2D轨道图
3D轨道图
轨道高度分析图
轨道倾角分析图
轨道综合分析图
查看轨道综合分析图